Location: Julian California
(33.0790°N, 116.6010°W)
Time: 13:41:32
(UTC-07:00)

Tiangong 2 - Pass Details

Date: 12 July 2018
Orbit: 386 x 394 km, 42.8° (Epoch: 22 July)

Event Time Altitude Azimuth Distance (km) Brightness Sun altitude
Rises 21:18:12 0° 255° (WSW) 2,254 5.5 -15.1°
Reaches altitude 10° 21:20:20 10° 263° (W) 1,401 4.5 -15.4°
Maximum altitude 21:23:21 40° 336° (NNW) 576 2.4 -15.9°
Drops below altitude 10° 21:26:22 10° 48° (NE) 1,403 3.8 -16.4°
Enters shadow 21:27:33 - 53° (NE) 1,872 4.4 -16.6°
